Regional Weather Roundup
Issued by NWS

Home | Current Version | Previous Version | Graphics & Text | Print | Product List | Glossary On
Versions: 1 2 3 4 5 6 7 8 9 10 11 12 13 14 15 16 17 18 19 20 21 22 23 24 25 26 27 28 29 30 31 32 33 34 35 36 37 38 39 40 41 42 43 44 45 46 47 48 49 50
000
ASUS45 KABQ 240801
RWRNM
WEATHER ROUNDUP FOR NEW MEXICO
NATIONAL WEATHER SERVICE ALBUQUERQUE NM
200 AM MDT THU JUL 24 2014

NOTE: "FAIR" MEANS FEW OR NO CLOUDS BELOW 12,000 FEET AGL WITH NO
       SIGNIFICANT WEATHER OR OBSTRUCTIONS TO VISION.

      THIS PRODUCT IS RELEASED AS TWO VERSIONS.  ONE VERSION NEAR
      THE TOP OF THE HOUR CONTAINING PRELIMINARY DATA FROM ALBUQUERQUE
      AND OTHER STATIONS.  A FINAL VERSION WITH ADDITIONAL DATA IS
      ISSUED ABOUT 10 MINUTES AFTER THE HOUR.

NMZ501-503-504-510>518-240900-
NORTHWEST PLATEAU/NORTHCENTRAL MOUNTAINS

CITY           SKY/WX    TMP DP  RH WIND       PRES   REMARKS
FARMINGTON     PTCLDY    76  50  40 E9        30.30F
LOS ALAMOS     CLEAR     67  47  49 S7        30.48S
SANTA FE       PTCLDY    67  51  56 VRB3      30.40S
TAOS           CLEAR     55  45  67 E7        30.48R
ANGEL FIRE     FAIR      46  42  87 CALM      30.58S

$$
NMZ402-403-502-505>509-240900-
WESTCENTRAL MOUNTAINS/SOUTHWEST MOUNTAINS

CITY           SKY/WX    TMP DP  RH WIND       PRES   REMARKS
GALLUP         MOCLDY    64  55  72 SE6       30.38F
GRANTS         PTCLDY    61  51  71 E5        30.40F

$$
NMZ407-409-411-412-240900-
SOUTHERN DESERTS

CITY           SKY/WX    TMP DP  RH WIND       PRES   REMARKS
LORDSBURG      FAIR      72  43  35 S9        30.19S
DEMING         CLEAR     73  50  44 E8        30.20S
LAS CRUCES     CLEAR     74  43  32 E6        30.23S
HOLLOMAN AFB   PTCLDY    73  45  35 SE3       30.20F
T OR C         LGT RAIN  73  53  49 NW5       30.25F

$$
NMZ519>523-240900-
CENTRAL VALLEYS/CENTRAL HIGHLANDS

CITY           SKY/WX    TMP DP  RH WIND       PRES   REMARKS
ALBUQUERQUE    PTCLDY    75  49  39 E6        30.31F
DOUBLE EAGLE   CLEAR     69  52  54 CALM      30.36S
CLINES CORNERS CLEAR     62  47  57 S10       30.45F
BELEN          FAIR      72  48  42 S8        30.30F
SOCORRO        FAIR      72  51  47 S3        30.27F

$$
NMZ524>526-539-540-240900-
SOUTHCENTRAL MOUNTAINS

CITY           SKY/WX    TMP DP  RH WIND       PRES   REMARKS
RUIDOSO        NOT AVBL

$$
NMZ527>531-240900-
NORTHEAST HIGHLANDS/NORTHEAST PLAINS

CITY           SKY/WX    TMP DP  RH WIND       PRES   REMARKS
LAS VEGAS      CLEAR     60  49  66 SW8       30.45F
RATON          NOT AVBL
CLAYTON        CLEAR     72  53  51 SW10      30.29F

$$
NMZ532>537-240900-
EASTCENTRAL PLAINS

CITY           SKY/WX    TMP DP  RH WIND       PRES   REMARKS
TUCUMCARI      CLEAR     75  58  55 S9        30.22F
CANNON AFB     CLEAR     69  60  71 SE2       30.27F
CLOVIS AIRPORT NOT AVBL

$$
NMZ028-029-538-240900-
SOUTHEAST PLAINS

CITY           SKY/WX    TMP DP  RH WIND       PRES   REMARKS
ROSWELL        CLEAR     76  54  46 W7        30.20F
ARTESIA        CLEAR     75  54  46 S3        30.18F
CARLSBAD       CLEAR     79  51  37 SW5       30.15F
HOBBS          CLEAR     75  52  43 E7        30.22F


$$



USA.gov is the U.S. government's official web portal to all federal, state and local government web resources and services.